Vorticity
4 3 4 3 4 4 10 8 9 9 9 9 9 9 9 9 10 11 10 10 11 11
4 3 2 3 5 6 9 9 8 9 10 9 9 9 8 8 8 9 9 10 10 10
4 3 4 4 5 9 9 8 9 10 10 9 9 8 7 10 10 10 9 9 8 7
5 4 3 5 7 8 8 10 11 11 10 8 7 8 11 9 7 5 5 5 6 6
5 5 6 6 7 9 10 12 10 9 8 8 10 12 6 8 11 10 10 9 8 8
5 5 5 5 10 10 12 10 8 7 8 11 8 7 10 9 8 8 9 9 10 10
5 5 5 9 10 10 11 9 8 7 11 7 10 9 10 8 8 8 9 9 10 12
4 5 8 10 10 11 9 8 7 11 8 10 9 9 9 8 8 9 9 9 10 11
5 7 9 9 10 10 8 8 11 8 11 9 8 7 8 8 8 8 9 9 10 10
7 7 8 9 10 8 8 10 10 10 9 7 6 8 8 8 7 9 10 11 11 11
7 7 9 10 8 8 11 10 10 9 7 7 8 7 6 7 8 10 11 12 12 13
6 10 9 8 7 11 11 10 9 8 7 7 7 7 7 8 9 10 13 14 15 14
10 10 8 8 8 13 10 10 8 7 7 7 7 7 8 9 10 12 15 15 15 13
10 7 8 7 13 10 9 8 8 7 7 7 8 8 8 10 11 13 15 13 12 12
Height
3077 3076 3074 3071 3068 3064 3061 3056 3054 3050 3046 3041 3036 3033 3028 3024 3021 3017 3012 3007 3003 2999
3070 3069 3068 3065 3062 3059 3055 3051 3047 3043 3039 3035 3029 3026 3023 3018 3015 3010 3005 3001 2997 2993
3064 3062 3061 3059 3056 3053 3048 3044 3040 3037 3033 3030 3025 3022 3018 3013 3008 3003 2998 2993 2989 2985
3057 3056 3054 3053 3050 3046 3042 3039 3034 3030 3026 3023 3018 3016 3011 3006 3001 2995 2990 2986 2982 2977
3051 3049 3048 3046 3043 3040 3036 3031 3028 3025 3020 3017 3012 3008 3004 2999 2993 2987 2982 2978 2973 2968
3044 3043 3042 3039 3037 3033 3028 3024 3020 3018 3015 3010 3006 3001 2996 2991 2985 2980 2975 2969 2964 2957
3039 3036 3036 3033 3032 3026 3021 3018 3015 3010 3006 3002 2998 2994 2989 2984 2978 2974 2968 2962 2955 2949
3032 3029 3029 3026 3023 3019 3016 3011 3008 3004 3000 2995 2990 2986 2982 2976 2971 2966 2960 2954 2947 2940
3025 3023 3022 3019 3015 3012 3009 3004 3001 2998 2994 2988 2983 2979 2975 2969 2963 2958 2951 2944 2938 2931
3017 3015 3014 3012 3010 3005 3001 2998 2995 2991 2987 2981 2976 2972 2967 2961 2955 2949 2942 2935 2928 2921
3011 3010 3007 3005 3002 2999 2995 2992 2989 2985 2980 2975 2970 2965 2959 2953 2947 2940 2933 2926 2918 2911
3004 3003 3001 2998 2995 2993 2989 2986 2983 2978 2973 2969 2964 2957 2951 2945 2939 2932 2925 2918 2910 2902
2997 2996 2994 2991 2989 2986 2983 2979 2976 2972 2967 2962 2957 2951 2945 2938 2930 2923 2917 2910 2902 2895
2990 2989 2988 2985 2983 2979 2976 2973 2970 2966 2961 2956 2951 2945 2938 2931 2923 2916 2908 2900 2893 2886